This demonstration page uses our WeatherBlox Daily Observations layout. Learn more.

Left ArrowRight Arrow

Hourly Observations for July 25, 2020

Temp ( °F °C ) Dew Point ( °F °C ) Humidity (%) Winds ( mph kmh ) Pressure ( in mb ) Visibility ( mi km ) Precip ( " mm )
12:53 am 00:53 Clear 79 26.1 70 21.1 74 74 SSE 12 19 29.93 1014 10 16 0.00 0.00
1:53 am 01:53 Clear 79 26.1 70 21.1 74 74 S 13 20 29.92 1013 10 16 0.00 0.00
2:53 am 02:53 Mostly Cloudy 79 26.1 70 21.1 74 74 S 7 11 29.94 1014 10 16 0.00 0.00
3:53 am 03:53 Partly Cloudy 78 25.6 70 21.1 76 76 S 13 20 29.91 1013 10 16 0.00 0.00
4:53 am 04:53 Clear 77 25 69 20.6 77 77 S 10 17 29.90 1012 10 16 0.00 0.00
5:53 am 05:53 Mostly Cloudy 77 25 69 20.6 77 77 S 12 19 29.91 1013 10 16 0.00 0.00
6:53 am 06:53 Mostly Sunny 76 24.4 69 20.6 79 79 S 10 17 29.91 1013 10 16 0.00 0.00
7:53 am 07:53 Sunny 77 25 69 20.6 77 77 S 9 15 29.92 1013 10 16 0.00 0.00
8:53 am 08:53 Sunny 80 26.7 69 20.6 69 69 SSW 16 26 29.91 1013 10 16 0.00 0.00
9:53 am 09:53 Sunny 82 27.8 69 20.6 65 65 SSW 13 20 29.92 1013 10 16 0.00 0.00
10:53 am 10:53 Sunny 86 30 70 21.1 59 59 S 16 26 29.91 1013 10 16 0.00 0.00
11:53 am 11:53 Sunny 89 31.7 71 21.7 55 55 S 15 24 29.91 1013 10 16 0.00 0.00
12:53 pm 12:53 Sunny 90 32.2 70 21.1 52 52 SSW 15 24 29.90 1012 10 16 0.00 0.00
1:53 pm 13:53 Sunny 92 33.3 71 21.7 51 51 S 13 20 29.89 1012 10 16 0.00 0.00
2:53 pm 14:53 Sunny 93 33.9 71 21.7 49 49 SSW 15 24 29.88 1012 10 16 0.00 0.00
3:53 pm 15:53 Sunny 94 34.4 71 21.7 48 48 S 16 26 29.87 1012 10 16 0.00 0.00
4:53 pm 16:53 Sunny 94 34.4 71 21.7 48 48 S 16 26 29.86 1011 10 16 0.00 0.00
5:53 pm 17:53 Sunny 93 33.9 72 22.2 50 50 S 13 20 29.85 1011 10 16 0.00 0.00
6:53 pm 18:53 Sunny 92 33.3 71 21.7 51 51 S 15 24 29.85 1011 10 16 0.00 0.00
7:53 pm 19:53 Sunny 89 31.7 71 21.7 55 55 S 13 20 29.85 1011 10 16 0.00 0.00
8:53 pm 20:53 Sunny 85 29.4 72 22.2 65 65 SSE 14 22 29.85 1011 10 16 0.00 0.00
9:53 pm 21:53 Clear 83 28.3 71 21.7 67 67 SSE 14 22 29.87 1011 10 16 0.00 0.00
10:53 pm 22:53 Clear 81 27.2 71 21.7 72 72 S 9 15 29.91 1013 10 16 0.00 0.00
11:53 pm 23:53 Clear 80 26.7 70 21.1 71 71 S 8 13 29.92 1013 10 16 0.00 0.00

Powered by AerisWeather